This is the latest recevied weather packets stored in our database for station/object DN9EM-1. If no packets are shown the sender has not sent any weather packets the latest 10 day(s).
| Time | Temp. | Humidity | Pressure | Rain* | Wind** | Luminosity | Snow |
|---|---|---|---|---|---|---|---|
| 1777680339 | 12.22° C | 65% | 1024.1 hPa | 0 mm | - | - | - |
| 1777679736 | 12.22° C | 64% | 1024.2 hPa | 0 mm | - | - | - |
| 1777679134 | 11.67° C | 65% | 1024.2 hPa | 0 mm | - | - | - |
| 1777678531 | 11.67° C | 67% | 1024.3 hPa | 0 mm | - | - | - |
| 1777677929 | 11.67° C | 67% | 1024.4 hPa | 0 mm | - | - | - |
| 1777677326 | 11.67° C | 66% | 1024.4 hPa | 0 mm | - | - | - |
| 1777676724 | 12.22° C | 65% | 1024.5 hPa | 0 mm | - | - | - |
| 1777676121 | 12.22° C | 64% | 1024.6 hPa | 0 mm | - | - | - |
| 1777675518 | 12.78° C | 64% | 1024.7 hPa | 0 mm | - | - | - |
| 1777674916 | 12.78° C | 64% | 1024.7 hPa | 0 mm | - | - | - |
| 1777674386 | 13.33° C | 63% | 1024.8 hPa | 0 mm | - | - | - |
| 1777673771 | 13.33° C | 63% | 1024.8 hPa | 0 mm | - | - | - |
| 1777673168 | 13.89° C | 63% | 1024.8 hPa | 0 mm | - | - | - |
| 1777672566 | 14.44° C | 60% | 1024.8 hPa | 0 mm | - | - | - |
| 1777671963 | 14.44° C | 60% | 1024.8 hPa | 0 mm | - | - | - |
| 1777671360 | 15° C | 59% | 1024.8 hPa | 0 mm | - | - | - |
| 1777670758 | 15° C | 57% | 1024.9 hPa | 0 mm | - | - | - |
| 1777670155 | 15.56° C | 56% | 1024.9 hPa | 0 mm | - | - | - |
| 1777669553 | 15.56° C | 56% | 1024.9 hPa | 0 mm | - | - | - |
| 1777668950 | 15° C | 57% | 1024.9 hPa | 0 mm | - | - | - |
| 1777668348 | 15.56° C | 57% | 1025 hPa | 0 mm | - | - | - |
| 1777667745 | 15.56° C | 56% | 1025.1 hPa | 0 mm | - | - | - |
| 1777667143 | 16.11° C | 54% | 1025.2 hPa | 0 mm | - | - | - |
| 1777666540 | 16.11° C | 53% | 1025.3 hPa | 0 mm | - | - | - |
| 1777665938 | 16.67° C | 52% | 1025.4 hPa | 0 mm | - | - | - |
* Rain latest hour (hover to see other rain measurements)
** Current wind speed in m/s (hover to see current wind gust speed)